Flag for Germany Weather past 2 weeks in Deggendorf, Bavaria, Germany

Now
55 °F

Fog.


Feels Like: 55 °F
Forecast: 48 / 74 °F
Wind: 2 mph from Northeast

Location: Straubing

Current Time: Sep 16, 2014 at 3:12:40 AM

Latest Report: Sep 16, 2014 at 2:00 AM


Visibility: 1 mi

Pressure: 30.03 "Hg

Humidity: 97%

Dew point: 54 °F

Location of DeggendorfLocation

Historic Weather in Deggendorf — Graph

°F

Deggendorf temperature yesterday

Maximum temperature yesterday: 70 °F (at 5:00 PM)
Minimum temperature yesterday: 56 °F (at 7:00 AM)
Average temperature yesterday: 62 °F

Past Weeks' High & Low Weather Summary

 TemperatureHumidityPressure
High77 °F (Sep 7, 4:00 PM)100% (Sep 6, 8:00 AM)30.14 "Hg (Sep 6, 8:00 AM)
Low47 °F (Sep 13, 4:00 AM)50% (Sep 10, 4:00 PM)29.85 "Hg (Sep 6, 6:00 PM)
Average61 °F83%30.02 "Hg
* Reported Sep 1 2:00 AM — Sep 16 2:00 AM, Deggendorf, Weather by CustomWeather, © 2014

Note: Actual official high and low records may vary slightly from our data, if they occured in-between our weather recording intervals... More about our weather records

Advertising

Deggendorf weather history for previous 24 hours

 ConditionsComfort  
Time TempWeatherWind HumidityBarometerVisibility
2:00 AM
Sep 16
55 °FFog.2 mph97%30.03 "Hg1 mi
1:00 AM57 °FClear.1 mph94%30.03 "Hg6 mi
12:00 AM56 °FClear.2 mph96%30.03 "Hg7 mi
11:00 PM
Sep 15
59 °FClear.1 mph91%30.02 "Hg11 mi
10:00 PM60 °FPassing clouds.2 mph91%30.02 "Hg9 mi
9:00 PM63 °FOvercast.2 mph84%30.01 "Hg13 mi
8:00 PM66 °FOvercast.2 mph79%29.99 "Hg17 mi
7:00 PM67 °FScattered clouds.1 mph75%29.99 "Hg22 mi
6:00 PM69 °FPassing clouds.2 mph63%29.98 "Hg28 mi
5:00 PM70 °FSunny.2 mph64%29.98 "Hg28 mi
4:00 PM68 °FPassing clouds.3 mph68%30.00 "Hg25 mi
3:00 PM67 °FPassing clouds.3 mph67%30.02 "Hg17 mi
2:00 PM66 °FScattered clouds.2 mph70%30.03 "Hg19 mi
1:00 PM64 °FOvercast.5 mph74%30.05 "Hg16 mi
12:00 PM63 °FOvercast.3 mph78%30.05 "Hg12 mi
11:00 AM62 °FOvercast.3 mph80%30.05 "Hg11 mi
10:00 AM59 °FFog.2 mph93%30.06 "Hg3 mi
9:00 AM58 °FFog.2 mph94%30.06 "Hg3 mi
8:00 AM57 °FFog.2 mph96%30.06 "Hg3 mi
7:00 AM56 °FFog.3 mph97%30.05 "Hg2 mi
6:00 AM57 °FFog.1 mph97%30.04 "Hg3 mi
4:00 AM58 °FLow clouds.3 mph99%30.03 "Hg0 mi
3:00 AM58 °FFog.3 mph98%30.03 "Hg1 mi
Weather by CustomWeather, © 2014

See weather overviewHow to use our weather pages